MUOS-4

Last updated on Nov. 18, 2019, 4:21 a.m. UTC

1 40887U 15044A   19321.15481785 -.00000087  00000-0  00000+0 0  9991
2 40887   3.2010 339.2215 0054069 356.5818 210.9177  1.00271416 15454
UTC
Height (km)
Latitude
Longitude
Inclination
Orbital Period
UTC large
Height (km)
Speed (km/s)
/
Latitude / Longitude
Inclination (degrees)
Orbital Period (minutes)
Azimuth
Elevation
Range (km)
Doppler Factor
iOS Compass Heading
iOS Angle

Next 30 passes for location: Hong Kong

Rise time Rise Azimuth (degrees) Set time Set Azimuth (degrees) Duration Max altitude (degrees)

No matching passes for this satellites